changsha , China , ASIA

  • Thursday
    November 21

      Cloudy

      50 °F

      Northeast

       

  • Friday
    November 22

    Cloudy  Cloudy

    72 °F  54 °F

    Northeast  Southeast

        

  • Saturday
    November 23

    Cloudy  Cloudy

    77 °F  55 °F

    Southeast  North

        

  • Sunday
    November 24

    Light rain  Light rain

    64 °F  45 °F

    North  North

    4~5L   4~5L 

  • Monday
    November 25

    Light rain  Light rain

    57 °F  45 °F

    North  North

    3~4L    

  • Tuesday
    November 26

    Light rain  Light rain

    50 °F  43 °F

    North  North

        

  • Wednesday
    November 27

    Light rain  Light rain

    46 °F  41 °F

    North  North

        

Date   Weather Temperature Humidity Total_rain Visibility Wind
23:00 Cloudy 54°F 83.3% 0mm 999.9km Northeast  1.5m/s
02:00 Cloudy 53°F 87.6% 0mm 999.9km Northeast  1.5m/s
05:00 Cloudy 50°F 93.5% 0mm 999.9km Northeast  1.5m/s
08:00 Cloudy 52°F 93.3% 0mm 999.9km Northeast  1.0m/s
11:00 Cloudy 64°F 69.6% 0mm 999.9km Northeast  1.4m/s
14:00 Cloudy 71°F 64.3% 0mm 999.9km Northeast  1.4m/s
17:00 Cloudy 69°F 67.3% 0mm 999.9km Northeast  1.2m/s
20:00 Cloudy 62°F 57.3% 0mm 999.9km Northeast  2.1m/s
23:00 Cloudy 58°F 81.8% 0mm 999.9km Southeast  1.7m/s
02:00 Cloudy 57°F 84% 0mm 999.9km Southeast  1.8m/s
05:00 Cloudy 54°F 93% 0mm 999.9km Southeast  1.6m/s
08:00 Cloudy 55°F 93.1% 0mm 999.9km Southeast  1.2m/s
11:00 Cloudy 69°F 72.9% 0mm 999.9km Southeast  1.3m/s
14:00 Cloudy 77°F 62.9% 0mm 999.9km Southeast  1.3m/s
17:00 Cloudy 76°F 66.5% 0mm 999.9km Northeast  1.6m/s
20:00 Cloudy 67°F 57.7% 0mm 999.9km Northeast  1.7m/s
23:00 Cloudy 59°F 84.7% 0mm 999.9km Northeast  2.0m/s
02:00 Cloudy 57°F 87.4% 0mm 999.9km Northeast  2.2m/s
05:00 Cloudy 56°F 90.6% 0mm 999.9km Northeast  1.8m/s
08:00 Cloudy 56°F 93.8% 0mm 999.9km Northeast  1.5m/s
11:00 Cloudy 62°F 83.8% 0mm 999.9km Northwest  2.0m/s
14:00 Cloudy 64°F 75.6% 0mm 999.9km Northeast  2.6m/s
17:00 Light rain 64°F 81% 0.1mm 999.9km Northwest  3.7m/s
20:00 Light rain 62°F 70.5% 0.1mm 999.9km Northwest  4.3m/s
23:00 Overcast 57°F 95.2% 0mm 999.9km Northwest  5.5m/s
02:00 Light rain 54°F 96.8% 0.6mm 999.9km Northwest  6.4m/s
05:00 Light rain 52°F 98% 0.5mm 999.9km Northwest  6.3m/s
08:00 Light rain 48°F 96.7% 0.7mm 999.9km Northwest  8.0m/s
11:00 Light rain 49°F 90.4% 1.3mm 999.9km Northwest  8.4m/s
14:00 Light rain 48°F 86% 0.8mm 999.9km Northwest  8.1m/s
17:00 Light rain 46°F 82.5% 0.2mm 999.9km Northwest  6.8m/s
20:00 Light rain 45°F 75.9% 0.3mm 999.9km Northwest  6.1m/s
23:00 Light rain 47°F 88.5% 0.3mm 999.9km Northwest  5.8m/s
02:00 Light rain 47°F 93.3% 0.2mm 999.9km Northwest  5.3m/s
05:00 Light rain 46°F 96.8% 0.2mm 999.9km Northwest  4.8m/s
08:00 Light rain 45°F 98% 0.2mm 999.9km Northwest  4.4m/s
11:00 Overcast 47°F 93.3% 0mm 999.9km Northwest  1.8m/s
14:00 Light rain 48°F 83.1% 0.4mm 999.9km Northwest  4.4m/s
17:00 Overcast 50°F 83.4% 0mm 999.9km Northwest  4.0m/s
20:00 Light rain 48°F 83.6% 0.4mm 999.9km Northwest  4.0m/s
23:00 Light rain 44°F 98% 0.5mm 999.9km Northwest  4.4m/s
02:00 Light rain 44°F 92.7% 0.4mm 999.9km Northwest  3.7m/s
05:00 Light rain 44°F 94.1% 1.6mm 999.9km Northwest  4.1m/s
08:00 Light rain 43°F 92.3% 0.6mm 999.9km Northwest  4.6m/s
11:00 Light rain 44°F 90.4% 0.3mm 999.9km Northwest  4.7m/s
14:00 Light rain 46°F 85.3% 0.5mm 999.9km Northwest  4.6m/s
17:00 Light rain 45°F 85% 0.2mm 999.9km Northwest  5.2m/s
20:00 Light rain 45°F 84.9% 0.3mm 999.9km Northwest  3.8m/s
23:00 Light rain 43°F 94.8% 0.3mm 999.9km Northwest  4.6m/s
02:00 Light rain 42°F 92% 0.1mm 999.9km Northwest  5.2m/s
05:00 Light rain 42°F 89.2% 0.3mm 999.9km Northwest  4.8m/s